User: anonymous   Login
Location: Iesi
(43.5167°N, 13.2333°E)
Time: 18:20:58
(UTC+00:00)
Language:

Cosmos 1464 Rocket - Orbit

View from above orbital plane
View from above orbital plane
View from above satellite
View from above satellite

Ground track
Ground track

The orbit data is extracted from the following two-line orbital elements,

1 14085U 83048B   20297.93113867 -.00000006 +00000-0 -21601-4 0  9991
2 14085 082.9415 260.6776 0032063 281.1716 078.5837 13.76295390878874
Epoch (UTC): 23 October 2020 22:20:50
Eccentricity: 0.0032063
inclination: 82.9415°
perigee height: 953 km
apogee height: 1000 km
right ascension of ascending node: 260.6776°
argument of perigee: 281.1716°
revolutions per day: 13.76295390
mean anomaly at epoch: 78.5837°
orbit number at epoch: 87887

The dashed part of the orbit path shows where the satellite is in the earth's shadow,  

DLR